This demonstration page uses our WeatherBlox Daily Observations layout. Learn more.

Left ArrowRight Arrow

Hourly Observations for October 1, 2015

Temp ( °F °C ) Dew Point ( °F °C ) Humidity (%) Winds ( mph kmh ) Pressure ( in mb ) Visibility ( mi km ) Precip ( " mm )
12:53 am 00:53 Clear 59 15 49 9.4 69 69 NE 7 11 30.09 1019 10 16 N/A
1:53 am 01:53 Mostly Cloudy 57 13.9 50 10 78 78 N 7 11 30.09 1019 10 16 N/A
2:53 am 02:53 Cloudy 56 13.3 50 10 81 81 NNE 12 19 30.09 1019 10 16 N/A
3:53 am 03:53 Partly Cloudy 56 13.3 49 9.4 77 77 NNE 8 13 30.08 1019 10 16 N/A
4:53 am 04:53 Clear 55 12.8 49 9.4 80 80 NNE 9 15 30.08 1019 10 16 N/A
5:53 am 05:53 Mostly Clear 55 12.8 49 9.4 80 80 NNE 8 13 30.09 1019 10 16 N/A
6:53 am 06:53 Mostly Clear 53 11.7 48 8.9 83 83 NNE 7 11 30.09 1019 10 16 N/A
7:53 am 07:53 Partly Cloudy 53 11.7 48 8.9 83 83 N 5 7 30.11 1020 10 16 N/A
8:53 am 08:53 Cloudy 55 12.8 47 8.3 74 74 NNE 10 17 30.11 1020 10 16 N/A
9:53 am 09:53 Mostly Cloudy with Light Rain 58 14.4 45 7.2 62 62 ENE 13 20 30.12 1020 10 16 N/A
10:53 am 10:53 Mostly Cloudy 59 15 46 7.8 62 62 ENE 16 26 30.12 1020 10 16 N/A
11:53 am 11:53 Sunny with Light Rain 60 15.6 45 7.2 58 58 ENE 14 22 30.12 1020 10 16 N/A
12:53 pm 12:53 Mostly Sunny 60 15.6 45 7.2 58 58 NE 13 20 30.11 1020 10 16 N/A
1:53 pm 13:53 Mostly Cloudy 61 16.1 46 7.8 58 58 NE 9 15 30.11 1020 10 16 N/A
2:53 pm 14:53 Cloudy 61 16.1 47 8.3 60 60 NE 13 20 30.11 1020 10 16 N/A
3:53 pm 15:53 Sunny 62 16.7 48 8.9 60 60 N 9 15 30.11 1020 10 16 N/A
4:53 pm 16:53 Sunny 63 17.2 48 8.9 58 58 N 12 19 30.10 1019 10 16 N/A
5:53 pm 17:53 Mostly Sunny 62 16.7 48 8.9 60 60 NNE 12 19 30.10 1019 10 16 N/A
6:53 pm 18:53 Sunny 60 15.6 48 8.9 65 65 NNE 12 19 30.12 1020 10 16 N/A
7:53 pm 19:53 Mostly Cloudy 59 15 48 8.9 67 67 NNE 10 17 30.14 1021 10 16 N/A
8:53 pm 20:53 Mostly Cloudy 58 14.4 48 8.9 70 70 NNE 10 17 30.14 1021 10 16 N/A
9:53 pm 21:53 Cloudy 58 14.4 48 8.9 70 70 NNE 9 15 30.15 1021 10 16 N/A
10:53 pm 22:53 Cloudy 58 14.4 48 8.9 70 70 NNE 12 19 30.15 1021 10 16 N/A
11:53 pm 23:53 Cloudy 58 14.4 48 8.9 70 70 NE 13 20 30.15 1021 10 16 N/A

Powered by AerisWeather